Amateur Radio Satellites - All Passes

Search period start: 24 May 2013 07:40
Search period end: 25 May 2013 07:40
Location: Albany, 35.0000°S, 118.0000°E

Satellite Date Start Highest point End Downlink Frequencies (MHz)
Time Altitude Azimuth
SO-67 24 May 07:45:20 07:49:00 72° 79° (E) 07:52:35 435.3500 MHz FM
PCSat 24 May 07:56:37 08:00:01 17° 230° (SW) 08:03:27 145.825 MHz
Hamsat 24 May 08:00:27 08:03:59 25° 250° (WSW) 08:07:27 145.90 MHz
ISS 24 May 08:14:57 08:18:11 42° 142° (SE) 08:21:23 145.800 FM
SO-50 24 May 08:24:00 08:28:03 31° 233° (SW) 08:32:11 436.795 FM
JAS-2 24 May 08:37:22 08:41:46 19° 86° (E) 08:46:25 435.800 - 435.900 CW/SSB, 435.910 FM
MaSat-1 24 May 09:01:30 09:05:34 16° 127° (SE) 09:09:53 437.345 MHz
KITSAT 1 24 May 09:12:07 09:18:20 25° 284° (WNW) 09:24:32 435.175 FM
HO-68 24 May 09:14:32 09:21:33 51° 79° (E) 09:28:27 435.675 MHz FM
JAS-1B 24 May 09:23:26 09:31:29 33° 243° (WSW) 09:39:48 435.800 - 435.900 CW/SSB
UOSAT-12 24 May 09:36:11 09:40:06 28° 68° (ENE) 09:44:02 437.025 FM, 437.400 FM
OPAL 24 May 09:39:14 09:43:07 21° 83° (E) 09:46:58 ?
ISS 24 May 09:52:37 09:54:37 15° 307° (NW) 09:56:36 145.800 FM
Oscar 11 24 May 10:01:36 10:06:02 89° 257° (WSW) 10:10:22 145.825 FM, Beacon 2401.500 USB
PANSAT 24 May 10:04:58 10:07:58 21° 14° (NNE) 10:10:59 not established
JAS-2 24 May 10:20:43 10:26:59 65° 254° (WSW) 10:34:01 435.800 - 435.900 CW/SSB, 435.910 FM
MaSat-1 24 May 10:41:33 10:48:27 83° 113° (ESE) 10:56:05 437.345 MHz
HO-68 24 May 11:02:55 11:08:49 28° 243° (WSW) 11:14:40 435.675 MHz FM
UOSAT-12 24 May 11:16:15 11:20:12 28° 233° (SW) 11:24:10 437.025 FM, 437.400 FM
OPAL 24 May 11:17:11 11:22:06 42° 249° (WSW) 11:27:00 ?
PANSAT 24 May 11:44:23 11:47:54 31° 2° (N) 11:51:26 not established
AO-40 24 May 11:46:23 14:01:07 40° 333° (NNW) 19:14:32 Beacon 2401.320
Oscar 19 24 May 12:17:25 12:21:20 22° 113° (ESE) 12:25:16 437.125 CW, 437.150 USB
Uribyol 2 24 May 12:17:53 12:21:39 20° 114° (ESE) 12:25:26 436.500 FM
MaSat-1 24 May 12:25:41 12:30:06 18° 280° (W) 12:34:42 437.345 MHz
Oscar 16 24 May 12:55:42 13:00:47 65° 106° (ESE) 13:05:55 437.025 USB, Beacon 2401.1428
AO-27 24 May 13:08:41 13:13:52 63° 106° (ESE) 13:19:06 436.795 MHz FM
RS-15 24 May 13:12:26 13:14:07 10° 85° (E) 13:15:49 29.354 - 29.394 USB, Beacon 29.352 USB
ITAMSAT 1 24 May 13:14:51 13:20:05 71° 105° (ESE) 13:25:21 435.822 SSB
PANSAT 24 May 13:24:37 13:27:53 24° 349° (N) 13:31:08 not established
Saudisat 1A 24 May 13:27:42 13:31:53 42° 123° (ESE) 13:36:05 436.775 MHz
Uosat F 24 May 13:41:30 13:44:46 17° 115° (ESE) 13:48:03 435.120 FM
AO-Echo 24 May 13:44:57 13:49:52 46° 108° (ESE) 13:54:57 ?
Gurwin Techsat 1B 24 May 13:45:18 13:48:26 16° 116° (ESE) 13:51:34 435.225 FM
Oscar 19 24 May 13:55:40 14:00:24 37° 278° (W) 14:05:12 437.125 CW, 437.150 USB
Uribyol 2 24 May 13:55:49 14:00:47 43° 279° (W) 14:05:48 436.500 FM
AO-7 24 May 14:14:14 14:18:05 14° 128° (SE) 14:21:56 29.400 - 29.500 MHz
Oscar 16 24 May 14:38:32 14:40:32 12° 271° (W) 14:42:34 437.025 USB, Beacon 2401.1428
AO-27 24 May 14:51:24 14:53:46 13° 272° (W) 14:56:10 436.795 MHz FM
ITAMSAT 1 24 May 14:58:24 15:00:02 11° 271° (W) 15:01:40 435.822 SSB
TMSAT-1 24 May 14:59:43 15:04:54 55° 107° (ESE) 15:10:09 436.925 FM
PCSat 24 May 15:02:34 15:07:11 27° 125° (SE) 15:11:45 145.825 MHz
PANSAT 24 May 15:06:51 15:07:40 11° 337° (NNW) 15:08:28 not established
Saudisat 1A 24 May 15:08:33 15:11:12 16° 289° (WNW) 15:13:52 436.775 MHz
RS-15 24 May 15:13:14 15:24:05 68° 67° (ENE) 15:35:30 29.354 - 29.394 USB, Beacon 29.352 USB
Uosat F 24 May 15:18:14 15:23:08 49° 280° (W) 15:28:06 435.120 FM
SO-50 24 May 15:19:53 15:21:57 13° 135° (SE) 15:24:01 436.795 FM
Gurwin Techsat 1B 24 May 15:22:36 15:27:51 59° 281° (W) 15:33:10 435.225 FM
AO-Echo 24 May 15:25:20 15:28:51 18° 273° (W) 15:32:28 ?
Sapphire 24 May 15:35:12 15:40:29 49° 120° (ESE) 15:45:43 437.095 MHz 1200 baud AX-25 AFSK
AO-7 24 May 16:01:06 16:09:25 73° 110° (ESE) 16:17:46 29.400 - 29.500 MHz
TMSAT-1 24 May 16:42:01 16:45:08 16° 272° (W) 16:48:16 436.925 FM
PCSat 24 May 16:45:42 16:50:38 36° 289° (WNW) 16:55:31 145.825 MHz
SO-50 24 May 16:58:19 17:03:12 85° 298° (WNW) 17:08:04 436.795 FM
Hamsat 24 May 17:17:09 17:19:00 13° 114° (ESE) 17:20:52 145.90 MHz
Sapphire 24 May 17:19:47 17:23:28 19° 285° (WNW) 17:27:09 437.095 MHz 1200 baud AX-25 AFSK
RS-15 24 May 17:27:27 17:37:20 35° 224° (SW) 17:47:44 29.354 - 29.394 USB, Beacon 29.352 USB
AO-7 24 May 17:56:53 18:02:46 21° 274° (W) 18:08:42 29.400 - 29.500 MHz
UOSAT-12 24 May 18:10:22 18:12:10 12° 135° (SE) 18:13:57 437.025 FM, 437.400 FM
JAS-1B 24 May 18:15:02 18:20:39 34° 116° (ESE) 18:27:10 435.800 - 435.900 CW/SSB
SO-67 24 May 18:19:08 18:21:28 17° 110° (ESE) 18:23:50 435.3500 MHz FM
STRAND 1 24 May 18:33:34 18:38:46 83° 77° (ENE) 18:43:53 ?
Hamsat 24 May 18:50:17 18:54:35 52° 279° (W) 18:58:55 145.90 MHz
HO-68 24 May 19:40:17 19:46:10 28° 117° (ESE) 19:52:05 435.675 MHz FM
UOSAT-12 24 May 19:48:19 19:52:53 78° 298° (WNW) 19:57:23 437.025 FM, 437.400 FM
RS-15 24 May 19:49:51 19:55:08 14° 190° (S) 20:00:31 29.354 - 29.394 USB, Beacon 29.352 USB
SO-67 24 May 19:51:43 19:54:42 24° 276° (W) 19:57:44 435.3500 MHz FM
JAS-1B 24 May 20:05:32 20:11:09 35° 274° (W) 20:17:43 435.800 - 435.900 CW/SSB
STRAND 1 24 May 20:16:20 20:17:11 10° 241° (WSW) 20:18:03 ?
JAS-2 24 May 20:31:08 20:35:50 34° 110° (ESE) 20:40:31 435.800 - 435.900 CW/SSB, 435.910 FM
OPAL 24 May 20:51:13 20:55:15 25° 114° (ESE) 20:59:21 ?
Oscar 11 24 May 20:53:33 20:57:46 47° 106° (ESE) 21:02:02 145.825 FM, Beacon 2401.500 USB
HO-68 24 May 21:26:30 21:33:26 51° 281° (W) 21:40:29 435.675 MHz FM
KITSAT 1 24 May 21:39:33 21:47:33 68° 67° (ENE) 21:55:36 435.175 FM
RS-15 24 May 22:06:41 22:14:49 20° 152° (SSE) 22:23:02 29.354 - 29.394 USB, Beacon 29.352 USB
JAS-2 24 May 22:16:56 22:21:01 22° 275° (W) 22:25:05 435.800 - 435.900 CW/SSB, 435.910 FM
OPAL 24 May 22:29:32 22:33:58 32° 279° (W) 22:38:29 ?
Oscar 11 24 May 22:32:15 22:34:13 13° 272° (W) 22:36:12 145.825 FM, Beacon 2401.500 USB
KITSAT 1 24 May 23:36:56 23:43:33 27° 228° (SW) 23:50:12 435.175 FM
RS-15 25 May 00:18:30 00:30:32 61° 125° (SE) 00:42:39 29.354 - 29.394 USB, Beacon 29.352 USB
ISS 25 May 00:54:34 00:57:58 88° 43° (NE) 01:01:23 145.800 FM
Oscar 16 25 May 01:11:18 01:15:53 30° 83° (E) 01:20:24 437.025 USB, Beacon 2401.1428
MaSat-1 25 May 01:14:14 01:17:10 34° 239° (WSW) 01:20:52 437.345 MHz
AO-27 25 May 01:25:45 01:30:19 30° 83° (E) 01:34:50 436.795 MHz FM
ITAMSAT 1 25 May 01:31:42 01:36:25 33° 83° (E) 01:41:04 435.822 SSB
AO-Echo 25 May 01:56:51 02:00:41 20° 87° (E) 02:04:25 ?
Oscar 19 25 May 02:10:13 02:15:28 81° 256° (WSW) 02:20:40 437.125 CW, 437.150 USB
Uribyol 2 25 May 02:11:47 02:17:02 89° 76° (ENE) 02:22:13 436.500 FM
RS-15 25 May 02:31:46 02:42:25 38° 285° (WNW) 02:53:09 29.354 - 29.394 USB, Beacon 29.352 USB
ISS 25 May 02:33:20 02:35:06 13° 206° (SSW) 02:36:52 145.800 FM
Oscar 16 25 May 02:50:43 02:55:06 28° 249° (WSW) 02:59:28 437.025 USB, Beacon 2401.1428
AO-27 25 May 03:05:17 03:09:43 28° 248° (WSW) 03:14:07 436.795 MHz FM
ITAMSAT 1 25 May 03:11:29 03:15:44 26° 248° (WSW) 03:19:56 435.822 SSB
TMSAT-1 25 May 03:19:32 03:24:08 29° 84° (E) 03:28:42 436.925 FM
Uosat F 25 May 03:29:19 03:34:25 69° 78° (ENE) 03:39:25 435.120 FM
Saudisat 1A 25 May 03:32:49 03:36:17 24° 68° (ENE) 03:39:46 436.775 MHz
AO-Echo 25 May 03:34:38 03:39:37 41° 251° (WSW) 03:44:24 ?
Gurwin Techsat 1B 25 May 03:42:14 03:47:38 76° 78° (ENE) 03:52:57 435.225 FM
AO-7 25 May 04:07:22 04:14:22 29° 83° (E) 04:21:16 29.400 - 29.500 MHz
TMSAT-1 25 May 04:59:22 05:03:59 30° 249° (WSW) 05:08:33 436.925 FM
Uosat F 25 May 05:10:30 05:12:34 13° 243° (WSW) 05:14:38 435.120 FM
Saudisat 1A 25 May 05:12:07 05:15:50 28° 233° (SW) 05:19:33 436.775 MHz
Oscar 10/S400 25 May 05:15:59 05:51:21 59° 15° (NNE) 06:09:53 145.825 - 145.975 CW/USB, Beacon 145.810 USB
Gurwin Techsat 1B 25 May 05:24:48 05:26:53 12° 242° (WSW) 05:28:58 435.225 FM
KITSAT 1 25 May 05:37:33 05:43:15 20° 137° (SE) 05:48:55 435.175 FM
PCSat 25 May 05:40:41 05:45:50 47° 69° (ENE) 05:51:02 145.825 MHz
STRAND 1 25 May 05:46:09 05:51:20 86° 105° (ESE) 05:56:35 ?
AO-7 25 May 05:59:20 06:07:23 55° 247° (WSW) 06:15:22 29.400 - 29.500 MHz
JAS-1B 25 May 06:03:41 06:09:27 17° 92° (E) 06:15:11 435.800 - 435.900 CW/SSB
Sapphire 25 May 06:13:27 06:18:53 90° 64° (ENE) 06:24:22 437.095 MHz 1200 baud AX-25 AFSK
AO-40 25 May 06:38:47 06:44:41 11° 36° (NE) 06:55:12 Beacon 2401.320
Hamsat 25 May 06:40:30 06:44:27 35° 83° (E) 06:48:20 145.90 MHz
SO-50 25 May 07:10:38 07:15:07 70° 63° (ENE) 07:19:44 436.795 FM
SO-67 25 May 07:21:23 07:24:41 31° 83° (E) 07:27:56 435.3500 MHz FM
PCSat 25 May 07:25:18 07:29:29 22° 233° (SW) 07:33:41 145.825 MHz
ISS 25 May 07:26:23 07:29:15 25° 146° (SE) 07:32:05 145.800 FM

Developed and maintained by Chris Peat, Heavens-Above GmbH. Please read the updated FAQ before sending e-mail. Imprint. DLR
